Regional Weather Roundup
Issued by NWS

Home | Current Version | Previous Version | Graphics & Text | Print | Product List | Glossary On
Versions: 1 2 3 4 5 6 7 8 9 10 11 12 13 14 15 16 17 18 19 20 21 22 23 24 25 26 27 28 29 30 31 32 33 34 35 36 37 38 39 40 41 42 43 44 45 46 47 48 49 50
000
ASUS43 KBIS 231610
RWRND

NORTH DAKOTA REGIONAL WEATHER ROUNDUP
NATIONAL WEATHER SERVICE BISMARCK ND
1100 AM CDT WED AUG 23 2017

NOTE: "FAIR" INDICATES FEW OR NO CLOUDS BELOW 12,000 FEET WITH NO
SIGNIFICANT WEATHER AND/OR OBSTRUCTIONS TO VISIBILITY.


NDZ001>003-009>011-017-231700-
NORTHWEST NORTH DAKOTA

CITY           SKY/WX    TMP DP  RH WIND       PRES   REMARKS
WILLISTON      SUNNY     74  48  39 S7        30.01F
MINOT          SUNNY     76  46  34 S10       30.01S
MINOT AFB      SUNNY     76  46  34 SW13      29.99S
$$

NDZ018>021-031>035-040>046-231700-
SOUTHWEST NORTH DAKOTA

CITY           SKY/WX    TMP DP  RH WIND       PRES   REMARKS
BISMARCK       SUNNY     72  53  51 CALM      30.05F
DICKINSON      SUNNY     74  49  41 S14       30.04F
GARRISON         N/A     70  49  47 S8        30.03F
HETTINGER ARPT SUNNY     71  51  49 E9        30.06F
$$

NDZ004>008-012>016-024-026-027-054-231700-
NORTHEAST NORTH DAKOTA

CITY           SKY/WX    TMP DP  RH WIND       PRES   REMARKS
GRAND FORKS    MOSUNNY   67  52  58 SE8       30.09F
GRND FRKS AFB  SUNNY     68  51  55 S9        30.09F
DEVILS LAKE    PTSUNNY   66  52  60 SE7       30.07F
$$

NDZ022-023-025-028>030-036>039-047>053-231700-
SOUTHEAST NORTH DAKOTA

CITY           SKY/WX    TMP DP  RH WIND       PRES   REMARKS
FARGO          SUNNY     69  52  54 E6        30.10S
JAMESTOWN      SUNNY     70  53  54 SE7       30.07S
$$




USA.gov is the U.S. government's official web portal to all federal, state and local government web resources and services.